Home   Weather   Sivaganga   Past weeks

Flag for India Past Weather in Sivaganga, Tamil Nadu, India — Yesterday and Last 2 Weeks

Now
88 °F

Haze.


Feels Like: 93 °F
Forecast: 72 / 94 °F
Wind: 6 mph from Northwest

Location: Tiruchchirapalli

Current Time: Dec 11, 2016 at 1:55:50 pm

Latest Report: Dec 11, 2016 at 1:30 pm


Visibility: 2 mi

Pressure: 29.74 "Hg

Humidity: 55%

Dew Point: 70 °F

Location of SivagangaLocation

Past Weather in Sivaganga — Graph

°F

Sivaganga Temperature Yesterday

Maximum temperature yesterday: 88 °F (at 1:30 pm)
Minimum temperature yesterday: 75 °F (at 5:00 am)
Average temperature yesterday: 81 °F

High & Low Weather Summary for the Past Weeks

 TemperatureHumidityPressure
High95 °F (Nov 27, 3:30 pm)100% (Dec 2, 5:30 pm)30.01 "Hg (Dec 2, 5:30 pm)
Low64 °F (Dec 1, 2:30 pm)28% (Nov 27, 3:30 pm)29.68 "Hg (Dec 9, 5:00 pm)
Average78 °F73%29.86 "Hg
* Reported Nov 26 12:30 pm — Dec 11 12:30 pm, Sivaganga, Weather by CustomWeather, © 2016

Note: Actual official high and low records may vary slightly from our data, if they occured in-between our weather recording intervals... More about our weather records

Advertising

Sivaganga Weather History for the Previous 24 Hours

Scroll right to see more
 ConditionsComfort  
Time TempWeatherWind HumidityBarometerVisibility
12:30 pm
Sun, Dec 11
86 °FHaze.6 mph59%29.77 "Hg2 mi
12:00 pm84 °FHaze.5 mph66%29.77 "Hg2 mi
11:30 am84 °FHaze.6 mph58%29.80 "Hg2 mi
11:00 am82 °FHaze.6 mph62%29.80 "Hg2 mi
10:30 am81 °FHaze.10 mph70%29.83 "Hg1 mi
10:00 am81 °FScattered clouds.9 mph70%29.83 "Hg1 mi
9:30 am77 °FFog.3 mph69%29.83 "Hg1 mi
9:00 am75 °FFog.3 mph74%29.83 "Hg1 mi
8:30 am73 °FFog.6 mph78%29.80 "Hg1 mi
8:00 am75 °FFog.6 mph83%29.80 "Hg1 mi
7:30 am72 °FFog.6 mph83%29.77 "Hg1 mi
7:00 am72 °FFog.3 mph83%29.77 "Hg1 mi
6:30 am72 °FFog.3 mph83%29.77 "Hg1 mi
6:00 am72 °FFog.No wind83%29.77 "Hg1 mi
5:30 am72 °FFog.No wind83%29.77 "Hg1 mi
5:00 am73 °FFog.No wind78%29.74 "Hg1 mi
4:30 am73 °FFog.No wind78%29.74 "Hg1 mi
4:00 am73 °FFog.No wind78%29.74 "Hg1 mi
3:30 am73 °FFog.No wind78%29.74 "Hg1 mi
3:00 am73 °FFog.No wind78%29.74 "Hg1 mi
2:30 am73 °FFog.No wind78%29.77 "Hg1 mi
2:00 am75 °FFog.No wind74%29.80 "Hg1 mi
1:30 am75 °FFog.No wind74%29.80 "Hg1 mi
1:00 am75 °FFog.No wind74%29.80 "Hg1 mi
12:30 am75 °FFog.No wind74%29.80 "Hg1 mi
12:00 am75 °FFog.No wind74%29.80 "Hg1 mi
11:30 pm
Sat, Dec 10
75 °FPassing clouds.No wind74%29.83 "Hg1 mi
11:00 pm77 °FPassing clouds.3 mph69%29.83 "Hg1 mi
10:30 pm77 °FPassing clouds.3 mph69%29.83 "Hg1 mi
10:00 pm79 °FPassing clouds.3 mph65%29.83 "Hg1 mi
9:30 pm79 °FPassing clouds.3 mph65%29.83 "Hg1 mi
9:00 pm79 °FPassing clouds.5 mph65%29.80 "Hg1 mi
8:30 pm79 °FPassing clouds.7 mph65%29.80 "Hg1 mi
8:00 pm81 °FPassing clouds.7 mph70%29.77 "Hg1 mi
7:30 pm81 °FPassing clouds.6 mph70%29.77 "Hg2 mi
7:00 pm82 °FPassing clouds.10 mph70%29.77 "Hg2 mi
6:30 pm84 °FPassing clouds.8 mph66%29.74 "Hg2 mi
6:00 pm86 °FScattered clouds.3 mph52%29.71 "Hg2 mi
5:30 pm88 °FScattered clouds.No wind49%29.71 "Hg2 mi
5:00 pm86 °FScattered clouds.No wind52%29.71 "Hg2 mi
4:30 pm86 °FScattered clouds.No wind52%29.71 "Hg2 mi
4:00 pm88 °FScattered clouds.No wind49%29.71 "Hg2 mi
3:30 pm88 °FScattered clouds.3 mph49%29.71 "Hg2 mi
3:00 pm88 °FScattered clouds.3 mph49%29.71 "Hg2 mi
2:30 pm88 °FScattered clouds.6 mph49%29.71 "Hg2 mi
2:00 pm88 °FScattered clouds.7 mph59%29.74 "Hg2 mi
1:30 pm88 °FScattered clouds.8 mph59%29.74 "Hg2 mi
1:00 pm86 °FScattered clouds.7 mph62%29.77 "Hg2 mi
Weather by CustomWeather, © 2016

See weather overviewHow to use our weather pages